Weather History for Moorhead, MN

Change the Weather History Date:

Sunday, January 20, 2013

  Actual Average (KFAR) Record (KFAR)
Temperature  
Mean Temperature -3 °F 9 °F  
Max Temperature 3 °F 18 °F 54 °F (1908)
Min Temperature -11 °F -1 °F -42 °F (1883)
Degree Days  
Heating Degree Days 68 56  
Month to date heating degree days 1116  
Since 1 July heating degree days 4656  
Cooling Degree Days 0 0  
Month to date cooling degree days 0  
Year to date cooling degree days 0  
Moisture  
Dew Point -9 °F    
Average Humidity 74    
Maximum Humidity 85    
Minimum Humidity 65    
Precipitation  
Precipitation 0.00 in 0.03 in 0.41 in (1937)
Month to date precipitation 0.49  
Year to date precipitation 0.49  
Snow  
Snow 0.00 in 0.40 in 8.60 in (1937)
Month to date snowfall 7.8  
Since 1 July snowfall 27.6  
Snow Depth -    
Sea Level Pressure  
Sea Level Pressure 30.36 in    
Wind  
Wind Speed 12 mph (NW)    
Max Wind Speed 22 mph    
Max Gust Speed 29 mph    
Visibility 9 miles    
Events      
T = Trace of Precipitation, MM = Missing Value Source: NWS Daily Summary

Daily Weather History Graph

Daily Weather History Graph

Search for Another Location

Airport:

Trip Planner

Search our weather history database for the weather conditions in past years. The results will help you decide how hot, cold, wet, or windy it might be!

Date:

Astronomy

Jan. 20, 2013 Rise Set
Actual Time 8:03 AM CST 5:12 PM CST
Civil Twilight 7:29 AM CST 5:46 PM CST
Nautical Twilight 6:52 AM CST 6:23 PM CST
Astronomical Twilight 6:16 AM CST 6:59 PM CST
Moon 12:15 PM CST (1/20) 2:34 AM CST (1/20)
Length of Visible Light 10h 16m
Length of Day
9h 09m
Waxing Gibbous, 66% of the Moon is Illuminated
Jan 20
Waxing Gibbous
Jan 26
Full
Feb 3
Last Quarter
Feb 10
New
Feb 17
First Quarter

Hourly Weather History & Observations

Time (CST) Temp. Windchill Dew Point Humidity Pressure Visibility Wind Dir Wind Speed Gust Speed Precip Events Conditions
12:14 AM -2.2 °F -20.7 °F -7.6 °F 78% 30.34 in 10.0 mi NNW 12.7 mph - N/A   Clear
12:35 AM -2.2 °F -18.9 °F -7.6 °F 78% 30.35 in 10.0 mi NW 10.4 mph - N/A   Clear
12:55 AM -2.2 °F -20.7 °F -7.6 °F 78% 30.36 in 10.0 mi NW 12.7 mph - N/A   Clear
1:15 AM -2.2 °F -19.9 °F -7.6 °F 78% 30.36 in 10.0 mi NNW 11.5 mph - N/A   Clear
1:35 AM -2.2 °F -18.9 °F -7.6 °F 78% 30.35 in 10.0 mi NNW 10.4 mph - N/A   Clear
1:54 AM -2.2 °F -18.9 °F -7.6 °F 78% 30.35 in 10.0 mi NNW 10.4 mph - N/A   Clear
2:15 AM -2.2 °F -18.9 °F -7.6 °F 78% 30.36 in 10.0 mi NNW 10.4 mph - N/A   Clear
2:35 AM -2.2 °F -18.0 °F -7.6 °F 78% 30.37 in 10.0 mi NNW 9.2 mph - N/A   Clear
2:54 AM -2.2 °F -18.0 °F -7.6 °F 78% 30.38 in 10.0 mi NNW 9.2 mph - N/A   Clear
3:15 AM -2.2 °F -19.9 °F -9.4 °F 71% 30.37 in 10.0 mi NNW 11.5 mph - N/A   Clear
3:35 AM -2.2 °F -16.8 °F -9.4 °F 71% 30.37 in 10.0 mi NNW 8.1 mph - N/A   Clear
3:54 AM -2.2 °F -15.6 °F -9.4 °F 71% 30.34 in 10.0 mi North 6.9 mph - N/A   Clear
4:15 AM -2.2 °F -14.2 °F -9.4 °F 71% 30.35 in 10.0 mi NNW 5.8 mph - N/A   Clear
4:35 AM -2.2 °F -12.5 °F -9.4 °F 71% 30.35 in 10.0 mi North 4.6 mph - N/A   Clear
4:54 AM -2.2 °F -10.4 °F -9.4 °F 71% 30.35 in 10.0 mi North 3.5 mph - N/A   Clear
5:15 AM -4.0 °F - -9.4 °F 78% 30.34 in 10.0 mi Calm Calm - N/A   Clear
5:34 AM -4.0 °F - -9.4 °F 78% 30.34 in 10.0 mi Calm Calm - N/A   Clear
5:55 AM -4.0 °F - -9.4 °F 78% 30.34 in 10.0 mi Calm Calm - N/A   Clear
6:15 AM -4.0 °F - -9.4 °F 78% 30.34 in 10.0 mi Calm Calm - N/A   Clear
6:34 AM -4.0 °F - -9.4 °F 78% 30.35 in 10.0 mi Calm Calm - N/A   Clear
6:55 AM -4.0 °F - -9.4 °F 78% 30.36 in 10.0 mi Calm Calm - N/A   Clear
7:15 AM -4.0 °F -12.4 °F -7.6 °F 85% 30.37 in 10.0 mi West 3.5 mph - N/A   Clear
7:34 AM -2.2 °F -10.4 °F -7.6 °F 78% 30.37 in 10.0 mi West 3.5 mph - N/A   Clear
7:55 AM -2.2 °F -10.4 °F -7.6 °F 78% 30.37 in 10.0 mi West 3.5 mph - N/A   Clear
8:15 AM -2.2 °F -10.4 °F -7.6 °F 78% 30.36 in 2.5 mi WSW 3.5 mph - N/A   Scattered Clouds
8:34 AM -2.2 °F -12.5 °F -5.8 °F 85% 30.37 in 3.0 mi West 4.6 mph - N/A   Overcast
8:55 AM -0.4 °F -15.7 °F -5.8 °F 78% 30.37 in 7.0 mi WNW 9.2 mph - N/A   Overcast
9:15 AM -0.4 °F -12.0 °F -4.0 °F 85% 30.37 in 10.0 mi West 5.8 mph - N/A   Mostly Cloudy
9:34 AM 1.4 °F -14.5 °F -4.0 °F 78% 30.37 in 5.0 mi West 10.4 mph - N/A   Haze
9:55 AM 1.4 °F -13.5 °F -2.2 °F 85% 30.37 in 10.0 mi West 9.2 mph - N/A   Overcast
10:15 AM 3.2 °F -13.9 °F -0.4 °F 85% 30.37 in 7.0 mi WNW 12.7 mph - N/A   Overcast
10:34 AM 3.2 °F -15.9 °F -2.2 °F 78% 30.38 in 5.0 mi NW 16.1 mph - N/A   Haze
10:55 AM 3.2 °F -16.5 °F -2.2 °F 78% 30.38 in 10.0 mi NW 17.3 mph - N/A   Mostly Cloudy
11:15 AM 3.2 °F -16.5 °F -2.2 °F 78% 30.38 in 10.0 mi NW 17.3 mph - N/A   Scattered Clouds
11:35 AM 3.2 °F -16.5 °F -4.0 °F 72% 30.38 in 10.0 mi NW 17.3 mph - N/A   Clear
11:55 AM 3.2 °F -18.6 °F -5.8 °F 66% 30.38 in 10.0 mi NNW 21.9 mph - N/A   Scattered Clouds
12:14 PM 3.2 °F -17.6 °F -4.0 °F 72% 30.38 in 7.0 mi NNW 19.6 mph - N/A   Scattered Clouds
12:35 PM 3.2 °F -17.1 °F -4.0 °F 72% 30.38 in 7.0 mi NW 18.4 mph - N/A   Scattered Clouds
12:55 PM 3.2 °F -18.1 °F -4.0 °F 72% 30.38 in 10.0 mi NW 20.7 mph 24.2 mph N/A   Clear
1:14 PM 1.4 °F -21.0 °F -5.8 °F 72% 30.38 in 5.0 mi NW 21.9 mph - N/A   Haze
1:35 PM 1.4 °F -21.0 °F -5.8 °F 72% 30.37 in 10.0 mi NW 21.9 mph 28.8 mph N/A   Clear
1:55 PM 1.4 °F -19.9 °F -7.6 °F 66% 30.37 in 10.0 mi NW 19.6 mph - N/A   Scattered Clouds
2:15 PM 1.4 °F -19.4 °F -7.6 °F 66% 30.36 in 10.0 mi NW 18.4 mph - N/A   Scattered Clouds
2:35 PM 1.4 °F -18.8 °F -5.8 °F 72% 30.36 in 7.0 mi NNW 17.3 mph - N/A   Mostly Cloudy
2:55 PM 1.4 °F -18.8 °F -7.6 °F 66% 30.36 in 10.0 mi NNW 17.3 mph - N/A   Scattered Clouds
3:15 PM 1.4 °F -19.4 °F -4.0 °F 78% 30.37 in 1.5 mi NNW 18.4 mph 24.2 mph N/A   Haze
3:35 PM -0.4 °F -21.7 °F -7.6 °F 72% 30.37 in 7.0 mi NW 18.4 mph - N/A   Mostly Cloudy
3:55 PM -0.4 °F -22.8 °F -7.6 °F 72% 30.37 in 10.0 mi NNW 20.7 mph - N/A   Mostly Cloudy
4:15 PM -0.4 °F -20.5 °F -7.6 °F 72% 30.37 in 10.0 mi NW 16.1 mph - N/A   Scattered Clouds
4:35 PM -2.2 °F -22.9 °F -7.6 °F 78% 30.37 in 10.0 mi NW 16.1 mph - N/A   Scattered Clouds
4:55 PM -2.2 °F -24.1 °F -9.4 °F 71% 30.37 in 10.0 mi NW 18.4 mph - N/A   Scattered Clouds
5:15 PM -2.2 °F -22.9 °F -9.4 °F 71% 30.37 in 10.0 mi NW 16.1 mph - N/A   Clear
5:35 PM -2.2 °F -22.2 °F -9.4 °F 71% 30.37 in 10.0 mi NW 15.0 mph - N/A   Clear
5:55 PM -4.0 °F -22.1 °F -9.4 °F 78% 30.36 in 10.0 mi NW 11.5 mph - N/A   Scattered Clouds
6:15 PM -4.0 °F -24.5 °F -9.4 °F 78% 30.36 in 10.0 mi NW 15.0 mph - N/A   Scattered Clouds
6:35 PM -4.0 °F -25.8 °F -11.2 °F 71% 30.35 in 10.0 mi NW 17.3 mph - N/A   Clear
6:55 PM -4.0 °F -25.8 °F -11.2 °F 71% 30.35 in 10.0 mi NW 17.3 mph 20.7 mph N/A   Clear
7:15 PM -4.0 °F -27.0 °F -11.2 °F 71% 30.35 in 10.0 mi NW 19.6 mph 27.6 mph N/A   Clear
7:35 PM -5.8 °F -30.5 °F -13.0 °F 71% 30.35 in 10.0 mi NW 21.9 mph 27.6 mph N/A   Clear
7:55 PM -5.8 °F -29.9 °F -14.8 °F 65% 30.35 in 10.0 mi NW 20.7 mph 28.8 mph N/A   Clear
8:15 PM -5.8 °F -28.8 °F -14.8 °F 65% 30.35 in 10.0 mi NW 18.4 mph - N/A   Clear
8:35 PM -5.8 °F -26.8 °F -14.8 °F 65% 30.35 in 10.0 mi NW 15.0 mph - N/A   Clear
8:55 PM -7.6 °F -29.8 °F -14.8 °F 71% 30.35 in 10.0 mi NNW 16.1 mph - N/A   Scattered Clouds
9:15 PM -7.6 °F -30.5 °F -16.6 °F 65% 30.35 in 10.0 mi NNW 17.3 mph - N/A   Scattered Clouds
9:35 PM -7.6 °F -31.7 °F -16.6 °F 65% 30.35 in 10.0 mi NW 19.6 mph 27.6 mph N/A   Scattered Clouds
9:54 PM -9.4 °F -33.5 °F -18.4 °F 65% 30.36 in 10.0 mi NW 18.4 mph 25.3 mph N/A   Clear
10:15 PM -9.4 °F -32.8 °F -18.4 °F 65% 30.37 in 10.0 mi NW 17.3 mph 21.9 mph N/A   Clear
10:35 PM -9.4 °F -32.8 °F -18.4 °F 65% 30.37 in 10.0 mi NW 17.3 mph - N/A   Clear
10:54 PM -9.4 °F -28.9 °F -18.4 °F 65% 30.37 in 10.0 mi NW 11.5 mph - N/A   Clear
11:15 PM -9.4 °F -31.4 °F -18.4 °F 65% 30.36 in 10.0 mi NW 15.0 mph - N/A   Clear
11:35 PM -9.4 °F -29.8 °F -18.4 °F 65% 30.37 in 10.0 mi NW 12.7 mph - N/A   Clear
11:54 PM -11.2 °F -32.9 °F -18.4 °F 70% 30.37 in 10.0 mi NW 13.8 mph - N/A   Clear